Location: Killam
(52.7910°N, 111.8608°W)
Time: 05:21:23
(UTC+00:00)

Gurwin Techsat 1B - Pass Details

Date: 16 March 2026
Orbit: 809 x 812 km, 99.0° (Epoch: 15 April)

Event Time Altitude Azimuth Distance (km) Brightness Sun altitude
Rises 12:04:44 0° 20° (NNE) 3,343 12.4 -14.9°
Reaches altitude 10° 12:07:15 10° 29° (NNE) 2,407 11.7 -14.5°
Maximum altitude 12:12:13 39° 97° (E) 1,209 10.1 -13.8°
Drops below altitude 10° 12:17:08 10° 166° (SSE) 2,390 11.1 -13.1°
Sets 12:19:37 0° 174° (S) 3,316 11.7 -12.7°
